Theta_e
320 326 332 333 342 347 352 351 346 356 354 347 343 344 352 355 352 347 347 344 340 344 345 347 347 343 343 344 345 343 341 339 339 339 342 344 344 342 339 339 339 339 338 338 336 335 335 335 336
319 326 332 327 343 345 351 349 353 353 351 347 345 344 353 360 353 350 347 344 341 344 346 347 347 344 345 346 342 341 341 339 340 342 343 343 342 339 339 338 338 338 337 336 334 333 334 335 335
321 327 326 327 337 344 347 350 351 347 343 344 345 343 352 357 351 350 347 340 342 344 345 345 346 343 347 346 343 340 338 338 339 341 342 342 340 339 338 338 337 337 335 334 332 332 333 334 333
324 323 320 328 332 345 347 349 347 348 342 340 342 346 350 352 352 349 341 337 339 342 344 346 345 344 347 345 344 341 340 340 339 337 337 338 337 337 336 336 335 334 333 332 331 332 333 333 332
320 317 323 324 354 354 349 346 347 344 343 341 341 357 357 351 349 342 339 336 336 339 340 344 345 345 344 345 341 340 339 339 340 337 336 336 336 336 335 334 333 331 331 331 331 331 332 332 330
313 315 322 347 354 353 350 346 344 345 343 350 354 353 355 349 346 344 341 337 335 332 332 337 339 340 340 341 337 336 334 333 332 332 332 333 333 333 333 332 331 331 331 330 330 330 330 329 328
314 314 320 344 355 355 351 345 346 343 342 352 348 354 352 350 350 348 343 341 340 337 332 334 335 335 334 334 333 333 332 331 331 332 331 331 331 331 331 331 331 330 330 331 331 329 329 328 327
312 313 318 330 352 354 348 345 336 344 349 342 345 350 355 350 351 349 346 344 343 342 338 336 336 335 332 331 330 328 329 330 330 330 330 331 331 330 332 333 333 331 333 335 337 337 334 331 329
310 311 313 338 349 349 343 345 344 340 343 339 340 345 349 351 349 348 347 346 345 345 343 338 337 337 334 333 333 333 330 328 328 328 328 328 328 329 331 338 341 342 342 342 342 340 340 339 337
311 311 330 334 345 346 343 346 346 344 340 342 341 338 343 347 346 336 332 328 332 335 341 342 339 334 333 333 331 332 331 331 330 329 327 327 331 331 341 344 343 342 342 342 341 340 340 340 339
311 320 346 348 344 343 344 345 344 343 345 340 338 334 332 332 330 328 326 325 327 330 337 341 344 342 338 339 342 337 330 330 330 328 329 331 336 341 345 344 343 343 341 340 340 339 338 337 335
313 332 348 349 347 342 346 345 339 336 335 331 329 328 327 326 325 325 323 322 325 328 331 334 340 342 343 343 344 344 343 338 339 338 337 336 339 340 343 342 340 340 340 340 339 338 337 336 335
312 332 348 348 341 341 341 337 332 328 327 326 326 325 324 322 321 320 320 321 322 324 325 328 333 336 340 343 343 343 341 340 340 340 341 341 340 342 343 341 340 340 340 341 341 340 340 339 338
317 347 348 345 344 337 333 332 331 326 323 322 322 322 321 320 319 318 318 318 319 320 322 323 327 332 337 341 340 339 338 336 337 337 337 340 341 342 341 340 339 339 338 338 339 340 340 340 339
343 347 339 344 337 338 335 338 331 324 322 322 321 320 320 318 317 316 316 316 316 316 317 320 322 327 333 335 335 335 332 331 330 330 331 332 336 337 336 335 335 335 336 336 336 337 338 338 338
334 336 346 338 336 334 333 347 327 323 323 322 321 320 320 318 317 316 315 315 315 314 315 316 318 322 324 325 327 326 325 325 322 322 324 325 327 327 328 328 328 329 331 332 333 332 335 334 335
314 344 334 344 334 334 332 334 327 322 324 323 320 319 319 318 317 315 315 314 314 313 313 315 316 319 319 319 320 318 318 317 316 318 320 319 319 319 320 319 319 320 322 323 322 322 322 324 327
311 339 327 348 340 332 331 330 327 323 323 322 319 318 316 316 317 315 314 313 313 312 312 313 314 316 317 316 317 315 314 313 314 314 314 313 313 313 314 313 313 312 312 311 312 313 315 316 315
312 312 324 339 331 329 332 330 328 324 321 320 317 316 314 315 315 315 314 313 312 312 310 311 312 314 316 316 314 313 310 310 311 309 309 309 308 308 308 307 307 306 306 305 305 306 308 310 309
312 312 312 313 325 329 328 330 327 324 322 319 317 314 313 313 313 314 313 312 311 310 310 310 310 312 312 313 313 310 309 308 308 307 307 306 305 304 304 303 303 302 302 303 303 303 304 306 309
313 312 313 317 326 326 328 329 326 323 319 317 316 314 313 312 312 312 312 311 310 310 310 309 310 310 310 311 310 308 308 307 306 306 304 302 301 302 302 301 301 301 301 301 301 301 302 303 303
315 314 314 325 326 330 327 334 326 324 321 318 315 313 311 311 311 310 311 310 310 309 310 309 308 308 309 308 307 307 306 304 304 304 302 301 300 300 300 300 300 300 299 299 299 298 298 298 298
318 319 316 319 323 325 327 323 322 322 323 320 314 312 311 309 310 310 310 309 309 309 309 309 308 308 308 308 307 306 305 304 303 302 302 301 301 300 299 298 298 298 299 299 298 297 297 297 297
317 317 313 315 317 325 326 328 320 326 327 322 313 312 310 308 308 309 310 309 309 309 308 309 308 308 307 307 307 306 305 304 303 303 302 302 301 301 299 298 298 298 298 298 297 297 296 296 296
316 313 315 315 323 325 320 324 323 319 322 320 314 312 310 307 306 307 307 308 309 308 308 307 308 307 306 306 306 306 304 303 303 303 303 301 302 301 300 299 298 297 298 298 297 297 296 294 295
317 313 315 318 317 317 320 326 321 312 314 315 313 311 308 305 306 307 307 308 309 308 307 307 307 307 306 305 304 305 304 303 302 301 301 300 301 302 300 299 298 297 297 296 297 297 296 295 294
320 316 315 316 316 316 319 320 316 313 313 312 311 310 307 306 306 306 306 307 307 307 307 306 306 307 305 305 304 305 305 303 302 302 301 300 299 301 301 299 298 296 296 297 297 296 295 294 293
326 322 321 315 321 322 325 324 321 313 311 311 310 308 307 307 306 305 305 305 306 306 307 306 306 307 306 305 304 304 304 302 300 301 301 300 299 300 301 299 297 296 295 296 296 295 295 292 292
329 328 325 320 322 324 327 328 321 311 310 310 308 307 307 306 304 303 304 306 305 305 306 305 305 305 306 305 304 304 303 302 301 300 298 298 298 299 300 298 297 296 295 295 294 294 294 291 291
328 330 326 330 332 329 328 325 309 307 307 307 307 307 305 304 303 304 305 305 304 304 305 304 304 305 306 305 305 304 303 301 300 299 295 296 298 299 299 298 297 296 295 295 295 294 292 291 291
Wind_Speed
6 2 2 1 2 5 3 5 2 5 5 1 1 3 7 13 3 3 10 9 27 24 22 20 19 18 17 16 17 20 20 21 22 23 21 18 17 16 16 15 15 13 12 11 10 10 10 9 8
3 3 2 2 3 4 1 3 4 2 5 4 5 4 9 6 6 11 9 17 25 24 23 20 19 18 18 17 18 21 20 20 21 20 17 15 14 14 13 12 11 10 8 7 7 8 7 7 6
3 4 3 4 3 2 3 2 2 7 7 5 2 3 4 3 7 7 13 27 25 23 22 20 18 18 17 17 18 19 19 19 18 17 15 14 12 11 10 9 8 6 4 3 3 5 4 5 3
6 4 4 4 2 2 5 8 6 6 9 7 3 6 5 8 7 12 27 25 24 23 22 19 18 18 17 16 17 18 19 18 16 15 13 12 10 9 7 6 5 3 1 1 1 2 2 3 3
3 3 3 3 3 2 7 3 7 8 4 6 2 4 4 4 16 29 27 25 25 23 21 19 17 17 16 16 16 17 16 16 15 13 11 9 8 6 5 4 2 1 1 1 3 4 3 4 5
4 3 4 1 2 3 5 5 2 6 4 9 12 10 4 15 29 26 25 25 22 23 20 18 17 16 16 16 16 16 15 14 13 12 10 8 6 4 3 2 1 2 3 4 5 6 6 6 8
6 4 4 5 3 3 4 1 4 12 5 5 1 3 6 10 15 22 23 22 20 18 17 16 15 14 14 13 13 13 12 11 10 9 8 6 5 3 3 3 4 5 6 7 9 9 10 9 10
5 4 4 4 6 5 7 1 1 3 3 6 3 5 6 12 20 20 18 18 16 14 13 13 13 12 12 11 9 9 9 8 7 7 6 5 4 3 3 5 7 9 10 11 12 13 13 12 12
4 4 3 6 8 5 6 6 2 2 0 4 7 2 9 24 22 21 18 14 13 9 6 7 9 10 10 9 9 8 8 7 6 6 5 5 5 5 6 8 10 13 14 15 15 16 16 17 17
5 4 7 7 6 10 7 6 4 2 2 3 10 17 24 23 20 17 17 15 17 12 6 6 6 6 7 6 6 8 9 9 9 8 7 6 6 5 7 10 12 14 14 14 14 15 16 18 18
3 6 5 1 8 14 13 6 4 4 4 2 9 11 16 23 18 16 17 19 18 15 12 7 7 3 6 6 6 7 9 9 9 9 10 10 10 8 8 11 11 10 10 10 13 13 14 16 17
5 4 6 6 7 7 13 5 5 4 4 12 12 12 17 15 15 12 15 19 19 17 15 13 10 7 5 4 3 6 9 11 10 10 12 13 13 12 11 10 7 6 7 8 10 13 14 14 13
4 6 5 10 8 7 7 4 5 9 11 13 16 17 14 15 16 16 18 18 16 16 13 12 11 11 10 9 9 7 6 3 3 7 11 12 11 8 4 2 4 7 9 9 9 10 12 12 13
6 7 14 8 7 7 11 8 3 4 12 13 14 13 11 13 14 14 17 16 16 12 11 9 10 10 9 11 11 14 13 13 13 12 10 6 2 1 2 5 8 10 11 11 11 11 12 13 13
15 13 7 5 6 4 12 2 3 11 12 13 13 11 12 12 15 16 15 16 14 13 11 9 9 9 9 10 11 13 15 14 16 15 14 12 10 9 8 9 10 11 11 13 13 13 14 16 16
6 5 6 5 5 3 3 6 6 9 13 11 12 11 10 9 13 14 14 14 13 12 12 11 10 11 12 13 14 15 15 16 17 16 15 14 14 13 12 12 12 12 12 14 16 18 17 18 19
4 6 4 5 7 2 3 4 9 8 10 11 10 11 11 10 11 14 14 13 12 13 12 11 10 11 15 17 18 19 18 19 17 16 16 15 15 14 13 14 14 13 14 15 17 17 18 19 23
5 7 1 14 15 10 5 7 13 14 11 11 9 9 10 9 9 15 15 14 13 14 14 13 13 12 14 16 16 18 19 19 19 19 17 15 16 14 13 13 14 14 15 17 17 17 17 17 25
4 5 7 16 4 6 14 6 15 13 8 11 9 9 9 9 12 16 16 15 14 15 17 17 15 15 11 13 14 16 19 20 20 19 18 18 17 16 17 16 15 15 16 17 18 18 19 20 27
4 6 7 6 6 9 6 5 6 11 5 11 13 10 11 10 8 13 16 15 16 17 18 20 20 17 16 13 13 13 18 21 20 19 20 20 19 18 17 18 18 18 18 19 21 22 19 16 25
5 5 6 6 4 5 8 3 7 6 4 7 8 10 11 14 13 9 14 16 16 18 18 19 20 20 15 13 12 14 18 18 19 20 21 23 21 21 21 20 20 21 21 22 23 24 23 19 18
7 8 8 7 6 6 6 5 7 12 8 11 11 10 11 10 8 8 14 16 17 16 16 19 20 20 18 16 18 19 20 23 19 18 20 23 23 24 23 22 23 24 23 25 25 26 27 25 22
10 9 9 8 9 6 6 1 6 15 10 17 13 12 12 10 11 10 14 19 17 17 17 17 18 19 17 18 18 20 22 19 19 17 19 20 22 24 25 22 24 23 21 22 23 26 27 26 22
8 5 7 5 5 4 11 14 5 14 27 21 12 15 14 11 9 13 18 19 17 16 17 15 15 16 15 15 16 17 17 17 16 16 17 16 17 19 22 23 22 23 19 20 21 23 26 22 20
3 5 4 3 0 6 8 5 6 9 8 20 20 18 15 13 12 11 14 18 18 16 16 17 16 16 14 15 14 14 16 15 14 13 13 13 12 14 18 20 22 24 19 17 17 16 24 25 21
6 9 5 9 5 6 5 7 5 7 8 18 20 19 16 12 12 12 16 20 19 16 14 15 17 16 13 13 13 12 13 13 14 13 13 14 14 10 13 15 19 20 19 19 13 15 20 24 23
6 4 6 3 2 3 3 3 3 9 12 16 19 19 14 13 12 13 18 22 19 17 15 14 14 15 13 12 13 11 10 10 10 9 10 12 12 12 7 12 16 20 17 14 14 18 20 24 24
1 4 2 4 2 5 3 2 3 1 8 14 16 15 14 14 11 10 13 19 16 16 15 14 12 13 12 10 11 10 9 9 10 8 10 10 8 10 8 9 14 19 18 14 12 18 17 24 24
6 5 5 3 4 0 2 2 6 7 8 14 14 14 14 12 10 8 13 17 16 14 19 15 13 12 12 9 9 8 7 7 9 9 7 6 6 8 9 8 12 18 18 14 17 19 18 23 24
6 4 4 3 4 2 4 4 5 9 8 11 15 14 10 10 9 11 18 21 19 19 22 17 12 11 12 10 9 10 9 6 8 10 11 7 7 9 9 6 11 12 15 12 16 18 20 22 25
Wind_Direction
6 68 122 167 36 65 22 359 204 293 34 347 21 32 83 31 50 177 123 145 149 146 149 146 142 140 139 137 133 127 125 123 121 121 116 112 112 111 111 111 107 102 100 99 96 91 86 83 81
342 121 56 24 50 42 149 138 329 71 182 196 36 41 42 49 58 112 114 151 145 147 149 148 147 145 141 141 138 133 131 127 126 125 121 119 117 116 114 112 110 105 102 99 93 87 87 80 74
35 162 89 100 102 181 218 164 90 325 347 22 84 33 91 92 123 129 159 152 147 150 152 153 149 144 145 143 142 137 132 130 132 130 128 126 123 120 118 114 111 107 102 94 83 81 78 74 43
146 20 30 77 312 44 264 163 138 345 341 2 63 61 73 159 142 158 153 154 151 151 152 154 150 147 147 147 144 140 138 139 139 137 136 136 135 132 128 122 119 116 110 54 25 49 38 32 2
86 59 57 96 146 289 298 153 148 96 339 311 272 91 63 9 136 145 155 157 154 154 154 152 152 149 150 150 148 146 145 145 147 142 144 149 148 146 141 140 139 172 278 313 315 323 338 346 321
48 98 68 31 85 115 342 27 34 112 254 145 118 107 52 143 135 154 159 161 159 154 155 154 154 156 156 156 157 153 151 152 152 152 153 161 166 170 178 186 208 266 287 301 310 316 323 326 312
125 91 161 161 185 130 175 64 183 151 214 316 94 83 132 154 147 149 159 160 157 153 151 154 158 159 161 163 164 161 158 161 161 161 163 172 179 198 226 258 282 290 302 309 313 314 314 311 312
111 92 138 199 204 216 147 80 261 128 219 299 298 153 176 165 148 149 156 150 145 147 151 156 162 166 168 171 174 171 170 175 177 178 180 196 217 236 279 299 306 306 308 309 314 316 317 312 307
122 81 175 197 181 181 131 156 78 347 242 24 348 84 122 129 124 122 121 119 115 116 133 162 176 176 178 187 192 195 193 200 201 202 207 222 239 257 290 313 319 311 310 310 308 312 314 315 313
103 116 208 190 194 163 144 147 165 179 142 95 68 64 99 120 122 113 106 90 96 91 106 170 166 191 195 202 230 224 216 220 229 233 237 249 263 280 308 315 319 319 317 319 320 321 320 319 316
142 168 203 25 125 138 155 161 208 179 67 9 114 93 83 92 91 96 93 94 98 92 89 112 169 196 217 221 276 269 251 246 247 251 260 263 266 275 292 318 330 324 328 329 328 326 327 323 321
94 133 175 182 129 123 144 126 90 56 86 101 95 93 90 81 74 76 81 89 99 90 83 84 95 103 113 198 219 261 245 255 270 277 277 274 278 290 304 301 322 339 345 345 337 332 333 330 323
119 190 166 138 113 116 101 75 132 94 96 92 94 81 78 80 74 69 77 87 87 78 75 70 79 91 98 111 109 117 114 121 226 254 265 278 284 293 312 23 20 12 6 2 358 343 337 336 327
165 150 138 138 150 124 129 151 94 139 116 96 91 86 80 77 85 71 67 68 67 66 66 67 68 79 96 106 106 104 101 95 91 89 81 74 75 72 47 30 22 15 10 6 0 351 340 334 328
114 106 63 130 141 134 148 43 126 146 121 108 101 100 95 89 82 86 79 69 64 57 57 75 81 84 100 100 102 101 95 90 84 80 75 70 71 66 56 44 31 19 6 1 355 350 341 325 321
92 50 114 240 193 196 265 205 151 154 127 124 123 116 104 93 94 89 84 81 73 66 63 70 84 96 95 103 105 101 96 88 82 78 74 68 65 60 55 46 34 19 8 1 356 351 342 334 327
318 157 164 173 224 170 251 222 179 172 148 151 142 133 127 118 107 104 93 85 78 71 70 71 75 92 101 97 100 91 91 83 80 77 68 59 55 50 43 37 28 16 7 1 358 354 353 340 332
191 155 204 179 210 208 177 245 167 181 167 160 147 138 132 133 135 121 105 90 81 76 75 76 75 94 103 106 102 90 84 74 71 69 65 53 48 39 32 26 20 11 8 7 2 359 357 349 339
160 131 177 209 229 142 216 213 189 175 161 154 152 152 145 139 140 124 111 98 84 75 67 69 70 73 110 106 89 79 76 73 74 66 59 48 41 36 35 32 28 26 24 22 14 8 7 360 355
187 184 208 261 217 163 161 260 198 187 180 167 157 162 149 140 133 131 123 110 95 83 72 69 68 71 78 91 99 92 88 77 77 63 53 45 41 40 41 41 42 39 37 34 30 27 23 16 26
236 191 220 185 91 50 117 347 198 213 146 158 176 163 153 154 151 145 126 106 94 87 84 73 71 72 77 96 105 102 96 83 71 61 55 52 52 54 53 52 49 48 46 46 43 40 40 25 27
263 203 231 143 131 204 184 235 215 199 189 183 181 164 155 154 141 135 126 113 106 99 93 88 84 83 85 91 93 90 86 83 75 73 66 61 59 58 55 55 53 53 54 53 54 51 48 43 33
241 249 212 193 202 127 170 94 265 153 200 211 185 161 161 157 154 143 143 131 123 116 108 101 92 89 88 88 86 92 91 88 81 76 69 64 60 58 54 54 53 51 51 52 52 45 40 37 35
238 308 45 50 120 220 201 198 216 182 204 196 166 165 160 154 142 139 144 138 133 128 120 115 110 101 95 92 86 87 91 85 77 69 64 61 60 57 51 53 52 45 46 46 46 41 32 26 25
128 79 299 311 93 227 196 187 228 219 225 186 167 161 161 153 143 142 153 152 150 147 139 128 124 118 106 98 93 98 92 85 76 69 64 54 54 54 49 47 44 37 42 41 36 31 23 23 20
223 168 171 239 213 230 131 213 233 286 270 157 159 150 150 142 148 155 156 161 160 157 147 135 128 131 117 98 89 93 90 81 72 71 69 59 51 48 47 45 39 33 35 31 28 17 9 13 14
295 190 215 223 86 122 216 296 299 20 117 140 146 146 139 143 155 156 163 165 160 156 157 143 133 135 125 109 97 93 97 77 67 67 62 50 43 43 60 43 35 28 23 21 14 5 3 5 4
68 309 24 17 271 239 251 274 270 306 141 140 144 139 141 149 153 149 155 153 154 142 147 143 139 140 131 119 108 101 100 72 53 46 35 32 46 52 60 50 29 21 22 24 12 0 3 357 356
2 12 3 92 116 139 308 270 302 175 166 150 137 136 145 150 147 137 139 151 138 130 141 136 134 138 148 135 137 130 111 74 53 43 19 18 59 48 48 56 27 18 18 14 9 6 358 349 351
127 92 356 87 330 78 139 282 342 102 116 136 138 138 137 134 130 139 146 150 139 133 143 143 133 130 164 147 166 161 153 118 71 46 27 58 71 56 57 39 17 11 10 1 2 354 351 351 350